Home > Weather > Helsingborg > Past weeks

Flag for Sweden Weather for the Past 2 Weeks in Helsingborg, Sweden

Now
32 °F

Ice fog.


Feels Like: 32 °F
Forecast: 26 / 34 °F
Wind: 2 mph from Northwest

Location: Ljungbyhed

Current Time: Feb 12, 2016 at 2:25:11 AM

Latest Report: Feb 12, 2016 at 1:50 AM


Visibility: 6 mi

Pressure: 29.47 "Hg

Humidity: 100%

Dew point: 32 °F

Location of HelsingborgLocation

Historic Weather in Helsingborg — Graph

°F

Helsingborg Temperature Yesterday

Maximum temperature yesterday: 39 °F (at 10:50 AM)
Minimum temperature yesterday: 34 °F (at 7:20 AM)
Average temperature yesterday: 37 °F

High & Low Weather Summary for the Past Weeks

 TemperatureHumidityPressure
High50 °F (Jan 28, 12:50 AM)100% (Jan 29, 10:20 AM)30.07 "Hg (Jan 29, 10:20 AM)
Low28 °F (Feb 4, 10:50 PM)66% (Jan 28, 1:20 PM)28.80 "Hg (Feb 10, 3:20 AM)
Average40 °F88%29.50 "Hg
* Reported Jan 28 12:50 AM — Feb 12 12:50 AM, Helsingborg, Weather by CustomWeather, © 2016

Note: Actual official high and low records may vary slightly from our data, if they occured in-between our weather recording intervals... More about our weather records

Advertising

Helsingborg Weather History for the Previous 24 Hours

 ConditionsComfort  
Time TempWeatherWind HumidityBarometerVisibility
12:50 AM
Fri, Feb 12
32 °FLight snow. Passing clouds.5 mph100%29.47 "Hg2 mi
12:20 AM32 °FLight rain. Low clouds.5 mph100%29.47 "Hg2 mi
11:50 PM
Thu, Feb 11
34 °FLight rain. Mostly cloudy.5 mph93%29.47 "Hg2 mi
10:50 PM36 °FMostly cloudy.3 mph93%29.47 "HgN/A
10:20 PM34 °FOvercast.5 mph100%29.47 "HgN/A
9:50 PM34 °FOvercast.3 mph100%29.47 "HgN/A
9:20 PM36 °FMostly cloudy.5 mph93%29.47 "HgN/A
8:50 PM36 °FMostly cloudy.5 mph100%29.47 "HgN/A
8:20 PM36 °FMostly cloudy.3 mph100%29.47 "HgN/A
7:50 PM36 °FPartly cloudy.3 mph100%29.47 "HgN/A
7:20 PM36 °FPartly cloudy.5 mph100%29.47 "HgN/A
6:50 PM37 °FMostly cloudy.6 mph93%29.47 "HgN/A
6:20 PM37 °FMostly cloudy.6 mph93%29.47 "HgN/A
5:50 PM37 °FOvercast.5 mph93%29.47 "HgN/A
5:20 PM37 °FMostly cloudy.8 mph93%29.45 "HgN/A
4:50 PM37 °FOvercast.6 mph100%29.45 "HgN/A
4:20 PM37 °FDrizzle. Partly sunny.6 mph93%29.45 "Hg4 mi
3:50 PM39 °FBroken clouds.12 mph93%29.45 "HgN/A
3:20 PM39 °FPartly sunny.9 mph93%29.45 "HgN/A
2:50 PM39 °FOvercast.10 mph93%29.42 "HgN/A
2:20 PM39 °FLow clouds.10 mph93%29.42 "HgN/A
1:50 PM39 °FPartly sunny.10 mph93%29.42 "HgN/A
1:20 PM39 °FBroken clouds.6 mph93%29.42 "HgN/A
12:50 PM37 °FLight rain. Broken clouds.6 mph93%29.42 "Hg5 mi
12:20 PM39 °FBroken clouds.3 mph93%29.42 "HgN/A
11:50 AM39 °FPartly sunny.5 mph93%29.39 "HgN/A
11:20 AM39 °FMore clouds than sun.3 mph93%29.39 "HgN/A
10:50 AM39 °FLight rain. Broken clouds.6 mph100%29.39 "Hg3 mi
10:20 AM37 °FFog.No wind100%29.39 "Hg3 mi
9:50 AM37 °FFog.No wind100%29.39 "Hg2 mi
9:20 AM36 °FFog.No wind100%29.39 "Hg2 mi
8:50 AM36 °FLow clouds.2 mph100%29.36 "Hg1 mi
8:20 AM34 °FBroken clouds.1 mph100%29.36 "Hg1 mi
7:50 AM36 °FMore clouds than sun.1 mph100%29.36 "Hg1 mi
7:20 AM34 °FFog.No wind100%29.36 "Hg0 mi
6:50 AM36 °FFog.1 mph100%29.33 "Hg0 mi
6:20 AM36 °FFog.No wind100%29.33 "Hg2 mi
5:20 AM36 °FFog.No wind100%29.33 "Hg2 mi
4:50 AM36 °FFog.No wind100%29.33 "Hg1 mi
4:20 AM36 °FFog.No wind100%29.33 "Hg3 mi
3:50 AM36 °FFog.1 mph100%29.30 "Hg3 mi
3:20 AM37 °FFog.1 mph100%29.30 "Hg4 mi
2:50 AM37 °FLight rain. Partly cloudy.1 mph93%29.30 "Hg5 mi
2:20 AM37 °FDrizzle. Low clouds.2 mph100%29.30 "Hg3 mi
Weather by CustomWeather, © 2016

See weather overviewHow to use our weather pages